Time,TemperatureF,DewpointF,PressureIn,WindDirection,WindDirectionDegrees,WindSpeedMPH,WindSpeedGustMPH,Humidity,HourlyPrecipIn,Conditions,Clouds,dailyrainin,SolarRadiationWatts/m^2,SoftwareType,DateUTC
2013-04-20 00:00:00,34.1,30.1,30.07,WNW,297,5.0,5.0,85,0.00,,,0.00,0,Wunderground v.1.15,2013-04-20 05:00:00,
2013-04-20 00:05:00,34.0,30.3,30.07,WNW,297,5.0,9.0,86,0.00,,,0.00,0,Wunderground v.1.15,2013-04-20 05:05:00,
2013-04-20 00:10:00,34.0,30.0,30.07,WNW,297,6.0,7.0,85,0.00,,,0.00,0,Wunderground v.1.15,2013-04-20 05:10:00,
2013-04-20 00:20:00,34.1,30.1,30.07,WNW,298,8.0,11.0,85,0.00,,,0.00,0,Wunderground v.1.15,2013-04-20 05:20:00,
2013-04-20 00:25:00,34.1,30.1,30.07,WNW,300,9.0,11.0,85,0.00,,,0.00,0,Wunderground v.1.15,2013-04-20 05:25:00,
2013-04-20 00:30:00,34.1,30.1,30.07,WNW,300,9.0,9.0,85,0.00,,,0.00,0,Wunderground v.1.15,2013-04-20 05:30:00,
2013-04-20 00:35:00,34.1,30.1,30.07,WNW,300,8.0,9.0,85,0.00,,,0.00,0,Wunderground v.1.15,2013-04-20 05:35:00,
2013-04-20 00:40:00,34.1,30.1,30.07,WNW,300,7.0,8.0,85,0.00,,,0.00,0,Wunderground v.1.15,2013-04-20 05:40:00,
2013-04-20 00:50:00,34.1,30.4,30.08,WNW,300,7.0,9.0,86,0.00,,,0.00,0,Wunderground v.1.15,2013-04-20 05:50:00,
2013-04-20 00:55:00,34.0,30.3,30.08,WNW,300,7.0,9.0,86,0.00,,,0.00,0,Wunderground v.1.15,2013-04-20 05:55:00,
2013-04-20 01:00:00,34.0,30.3,30.08,WNW,300,7.0,8.0,86,0.00,,,0.00,0,Wunderground v.1.15,2013-04-20 06:00:00,
2013-04-20 01:05:00,34.0,30.3,30.08,WNW,300,7.0,8.0,86,0.00,,,0.00,0,Wunderground v.1.15,2013-04-20 06:05:00,
2013-04-20 01:10:00,33.9,30.2,30.08,WNW,300,7.0,9.0,86,0.00,,,0.00,0,Wunderground v.1.15,2013-04-20 06:10:00,
2013-04-20 01:15:00,33.8,30.1,30.08,WNW,300,7.0,9.0,86,0.00,,,0.00,0,Wunderground v.1.15,2013-04-20 06:15:00,
2013-04-20 01:25:00,33.8,30.1,30.08,WNW,302,8.0,9.0,86,0.00,,,0.00,0,Wunderground v.1.15,2013-04-20 06:25:00,
2013-04-20 01:30:00,33.8,30.1,30.08,WNW,302,9.0,9.0,86,0.00,,,0.00,0,Wunderground v.1.15,2013-04-20 06:30:00,
2013-04-20 01:35:00,33.7,30.0,30.08,WNW,302,8.0,9.0,86,0.00,,,0.00,0,Wunderground v.1.15,2013-04-20 06:35:00,
2013-04-20 01:40:00,33.7,30.0,30.08,WNW,302,7.0,7.0,86,0.00,,,0.00,0,Wunderground v.1.15,2013-04-20 06:40:00,
2013-04-20 01:45:00,33.6,29.9,30.08,WNW,302,7.0,7.0,86,0.00,,,0.00,0,Wunderground v.1.15,2013-04-20 06:45:00,
2013-04-20 01:55:00,33.7,29.7,30.08,NW,304,8.0,9.0,85,0.00,,,0.00,0,Wunderground v.1.15,2013-04-20 06:55:00,
2013-04-20 02:00:00,33.7,29.7,30.09,NW,304,8.0,8.0,85,0.00,,,0.00,0,Wunderground v.1.15,2013-04-20 07:00:00,
2013-04-20 02:05:00,33.6,29.6,30.09,NW,304,7.0,8.0,85,0.00,,,0.00,0,Wunderground v.1.15,2013-04-20 07:05:00,
2013-04-20 02:10:00,33.5,29.5,30.09,NW,304,6.0,6.0,85,0.00,,,0.00,0,Wunderground v.1.15,2013-04-20 07:10:00,
2013-04-20 02:15:00,33.4,29.4,30.09,NW,304,6.0,6.0,85,0.00,,,0.00,0,Wunderground v.1.15,2013-04-20 07:15:00,
2013-04-20 02:20:00,33.3,29.3,30.10,NW,304,5.0,5.0,85,0.00,,,0.00,0,Wunderground v.1.15,2013-04-20 07:20:00,
2013-04-20 02:30:00,32.9,29.2,30.10,NW,304,4.0,5.0,86,0.00,,,0.00,0,Wunderground v.1.15,2013-04-20 07:30:00,
2013-04-20 02:35:00,32.8,29.4,30.10,NW,304,4.0,5.0,87,0.00,,,0.00,0,Wunderground v.1.15,2013-04-20 07:35:00,
2013-04-20 02:40:00,32.6,29.2,30.10,NW,304,4.0,5.0,87,0.00,,,0.00,0,Wunderground v.1.15,2013-04-20 07:40:00,
2013-04-20 02:45:00,32.5,29.1,30.10,NW,304,4.0,5.0,87,0.00,,,0.00,0,Wunderground v.1.15,2013-04-20 07:45:00,
2013-04-20 02:50:00,32.4,29.0,30.10,NW,304,4.0,4.0,87,0.00,,,0.00,0,Wunderground v.1.15,2013-04-20 07:50:00,
2013-04-20 03:00:00,32.2,28.8,30.11,NW,304,4.0,4.0,87,0.00,,,0.00,0,Wunderground v.1.15,2013-04-20 08:00:00,
2013-04-20 03:05:00,32.1,28.7,30.11,NW,304,4.0,4.0,87,0.00,,,0.00,0,Wunderground v.1.15,2013-04-20 08:05:00,
2013-04-20 03:10:00,32.0,28.6,30.11,NW,304,3.0,3.0,87,0.00,,,0.00,0,Wunderground v.1.15,2013-04-20 08:10:00,
2013-04-20 03:15:00,32.0,28.8,30.11,NW,304,3.0,3.0,88,0.00,,,0.00,0,Wunderground v.1.15,2013-04-20 08:15:00,
2013-04-20 03:20:00,31.9,28.8,30.11,NW,304,3.0,3.0,88,0.00,,,0.00,0,Wunderground v.1.15,2013-04-20 08:20:00,
2013-04-20 03:25:00,31.9,29.0,30.11,NW,304,4.0,4.0,89,0.00,,,0.00,0,Wunderground v.1.15,2013-04-20 08:25:00,
2013-04-20 03:35:00,31.9,29.0,30.11,NW,304,4.0,5.0,89,0.00,,,0.00,0,Wunderground v.1.15,2013-04-20 08:35:00,
2013-04-20 03:40:00,31.9,29.0,30.11,NW,304,5.0,5.0,89,0.00,,,0.00,0,Wunderground v.1.15,2013-04-20 08:40:00,
2013-04-20 03:45:00,31.9,29.0,30.12,NW,304,5.0,5.0,89,0.00,,,0.00,0,Wunderground v.1.15,2013-04-20 08:45:00,
2013-04-20 03:50:00,31.8,28.9,30.12,NW,304,4.0,4.0,89,0.00,,,0.00,0,Wunderground v.1.15,2013-04-20 08:50:00,
2013-04-20 03:55:00,31.7,28.8,30.12,NW,304,4.0,6.0,89,0.00,,,0.00,0,Wunderground v.1.15,2013-04-20 08:55:00,
2013-04-20 04:05:00,31.9,29.0,30.12,NW,304,6.0,6.0,89,0.00,,,0.00,0,Wunderground v.1.15,2013-04-20 09:05:00,
2013-04-20 04:10:00,32.0,28.8,30.12,WNW,302,6.0,7.0,88,0.00,,,0.00,0,Wunderground v.1.15,2013-04-20 09:10:00,
2013-04-20 04:15:00,32.1,28.9,30.13,WNW,300,6.0,7.0,88,0.00,,,0.00,0,Wunderground v.1.15,2013-04-20 09:15:00,
2013-04-20 04:20:00,32.1,28.9,30.13,WNW,298,6.0,6.0,88,0.00,,,0.00,0,Wunderground v.1.15,2013-04-20 09:20:00,
2013-04-20 04:25:00,32.1,28.9,30.13,WNW,298,5.0,6.0,88,0.00,,,0.00,0,Wunderground v.1.15,2013-04-20 09:25:00,
2013-04-20 04:30:00,32.0,28.8,30.13,WNW,298,5.0,5.0,88,0.00,,,0.00,0,Wunderground v.1.15,2013-04-20 09:30:00,
2013-04-20 04:40:00,32.0,28.6,30.14,WNW,298,6.0,8.0,87,0.00,,,0.00,0,Wunderground v.1.15,2013-04-20 09:40:00,
2013-04-20 04:45:00,32.0,28.6,30.14,WNW,298,7.0,8.0,87,0.00,,,0.00,0,Wunderground v.1.15,2013-04-20 09:45:00,
2013-04-20 04:50:00,32.0,28.6,30.14,WNW,298,7.0,8.0,87,0.00,,,0.00,0,Wunderground v.1.15,2013-04-20 09:50:00,
2013-04-20 04:55:00,32.0,28.6,30.14,WNW,298,7.0,9.0,87,0.00,,,0.00,0,Wunderground v.1.15,2013-04-20 09:55:00,
2013-04-20 05:00:00,32.0,28.3,30.14,WNW,298,8.0,9.0,86,0.00,,,0.00,0,Wunderground v.1.15,2013-04-20 10:00:00,
2013-04-20 05:10:00,32.0,28.6,30.15,WNW,298,8.0,8.0,87,0.00,,,0.00,0,Wunderground v.1.15,2013-04-20 10:10:00,
2013-04-20 05:15:00,31.9,28.5,30.15,WNW,299,8.0,8.0,87,0.00,,,0.00,0,Wunderground v.1.15,2013-04-20 10:15:00,
2013-04-20 05:20:00,31.9,28.5,30.15,WNW,299,9.0,9.0,87,0.00,,,0.00,0,Wunderground v.1.15,2013-04-20 10:20:00,
2013-04-20 05:25:00,31.9,28.5,30.15,WNW,301,9.0,9.0,87,0.00,,,0.00,0,Wunderground v.1.15,2013-04-20 10:25:00,
2013-04-20 05:30:00,31.8,28.4,30.16,WNW,302,9.0,10.0,87,0.00,,,0.00,0,Wunderground v.1.15,2013-04-20 10:30:00,
2013-04-20 05:35:00,31.9,28.2,30.16,WNW,303,9.0,10.0,86,0.00,,,0.00,0,Wunderground v.1.15,2013-04-20 10:35:00,
2013-04-20 05:45:00,31.9,28.2,30.16,NW,306,9.0,10.0,86,0.00,,,0.00,0,Wunderground v.1.15,2013-04-20 10:45:00,
2013-04-20 05:50:00,31.8,28.1,30.16,NW,307,7.0,7.0,86,0.00,,,0.00,0,Wunderground v.1.15,2013-04-20 10:50:00,
2013-04-20 05:55:00,31.7,28.0,30.16,NW,308,6.0,7.0,86,0.00,,,0.00,0,Wunderground v.1.15,2013-04-20 10:55:00,
2013-04-20 06:00:00,31.5,27.8,30.16,NW,311,6.0,6.0,86,0.00,,,0.00,0,Wunderground v.1.15,2013-04-20 11:00:00,
2013-04-20 06:10:00,31.5,28.1,30.16,NW,311,6.0,6.0,87,0.00,,,0.00,0,Wunderground v.1.15,2013-04-20 11:10:00,
2013-04-20 06:15:00,31.4,28.0,30.17,NW,311,6.0,6.0,87,0.00,,,0.00,5,Wunderground v.1.15,2013-04-20 11:15:00,
2013-04-20 06:20:00,31.4,28.3,30.17,NW,311,6.0,6.0,88,0.00,,,0.00,9,Wunderground v.1.15,2013-04-20 11:20:00,
2013-04-20 06:25:00,31.3,27.9,30.18,NW,311,5.0,6.0,87,0.00,,,0.00,12,Wunderground v.1.15,2013-04-20 11:25:00,
2013-04-20 06:30:00,31.3,28.2,30.18,NW,311,5.0,5.0,88,0.00,,,0.00,16,Wunderground v.1.15,2013-04-20 11:30:00,
2013-04-20 06:35:00,31.4,28.3,30.18,NW,311,5.0,6.0,88,0.00,,,0.00,19,Wunderground v.1.15,2013-04-20 11:35:00,
2013-04-20 06:45:00,31.6,28.5,30.19,NW,311,5.0,7.0,88,0.00,,,0.00,35,Wunderground v.1.15,2013-04-20 11:45:00,
2013-04-20 06:50:00,31.7,28.3,30.19,NW,311,5.0,6.0,87,0.00,,,0.00,44,Wunderground v.1.15,2013-04-20 11:50:00,
2013-04-20 06:55:00,31.8,28.4,30.20,NW,311,6.0,6.0,87,0.00,,,0.00,56,Wunderground v.1.15,2013-04-20 11:55:00,
2013-04-20 07:00:00,31.9,28.8,30.20,NW,311,5.0,5.0,88,0.00,,,0.00,70,Wunderground v.1.15,2013-04-20 12:00:00,
2013-04-20 07:10:00,32.1,28.9,30.21,NW,311,4.0,4.0,88,0.00,,,0.00,102,Wunderground v.1.15,2013-04-20 12:10:00,
2013-04-20 07:15:00,32.3,29.1,30.22,NW,311,4.0,4.0,88,0.00,,,0.00,118,Wunderground v.1.15,2013-04-20 12:15:00,
2013-04-20 07:25:00,32.5,29.1,30.22,WNW,302,5.0,5.0,87,0.00,,,0.00,156,Wunderground v.1.15,2013-04-20 12:25:00,
2013-04-20 07:30:00,32.6,29.2,30.23,WNW,297,5.0,6.0,87,0.00,,,0.00,176,Wunderground v.1.15,2013-04-20 12:30:00,
2013-04-20 07:35:00,32.7,29.3,30.23,WNW,294,5.0,6.0,87,0.00,,,0.00,195,Wunderground v.1.15,2013-04-20 12:35:00,
2013-04-20 07:40:00,32.8,29.4,30.23,WNW,293,5.0,5.0,87,0.00,,,0.00,213,Wunderground v.1.15,2013-04-20 12:40:00,
2013-04-20 07:45:00,32.8,29.4,30.24,WNW,292,4.0,5.0,87,0.00,,,0.00,232,Wunderground v.1.15,2013-04-20 12:45:00,
2013-04-20 07:50:00,32.9,29.2,30.24,WNW,292,4.0,4.0,86,0.00,,,0.00,250,Wunderground v.1.15,2013-04-20 12:50:00,
2013-04-20 07:55:00,33.0,29.3,30.25,WNW,292,4.0,5.0,86,0.00,,,0.00,267,Wunderground v.1.15,2013-04-20 12:55:00,
2013-04-20 08:00:00,33.2,29.5,30.25,WNW,292,4.0,4.0,86,0.00,,,0.00,281,Wunderground v.1.15,2013-04-20 13:00:00,
2013-04-20 08:10:00,33.4,29.4,30.25,WNW,288,4.0,4.0,85,0.00,,,0.00,316,Wunderground v.1.15,2013-04-20 13:10:00,
2013-04-20 08:15:00,33.6,29.3,30.26,West,269,5.0,7.0,84,0.00,,,0.00,334,Wunderground v.1.15,2013-04-20 13:15:00,
2013-04-20 08:20:00,33.7,29.7,30.25,West,267,5.0,5.0,85,0.00,,,0.00,352,Wunderground v.1.15,2013-04-20 13:20:00,
2013-04-20 08:30:00,33.9,29.6,30.26,West,267,4.0,4.0,84,0.00,,,0.00,387,Wunderground v.1.15,2013-04-20 13:30:00,
2013-04-20 08:35:00,34.1,29.5,30.26,West,269,4.0,4.0,83,0.00,,,0.00,406,Wunderground v.1.15,2013-04-20 13:35:00,
2013-04-20 08:40:00,34.2,29.9,30.26,West,276,5.0,5.0,84,0.00,,,0.00,424,Wunderground v.1.15,2013-04-20 13:40:00,
2013-04-20 08:45:00,34.4,29.8,30.26,West,277,5.0,5.0,83,0.00,,,0.00,441,Wunderground v.1.15,2013-04-20 13:45:00,
2013-04-20 08:50:00,34.5,29.9,30.26,West,279,5.0,8.0,83,0.00,,,0.00,459,Wunderground v.1.15,2013-04-20 13:50:00,
2013-04-20 09:00:00,34.8,29.9,30.27,West,279,5.0,5.0,82,0.00,,,0.00,490,Wunderground v.1.15,2013-04-20 14:00:00,
2013-04-20 09:05:00,35.0,29.8,30.27,West,279,5.0,5.0,81,0.00,,,0.00,508,Wunderground v.1.15,2013-04-20 14:05:00,
2013-04-20 09:10:00,35.1,29.9,30.28,West,280,5.0,5.0,81,0.00,,,0.00,524,Wunderground v.1.15,2013-04-20 14:10:00,
2013-04-20 09:15:00,35.3,30.4,30.28,West,281,4.0,5.0,82,0.00,,,0.00,538,Wunderground v.1.15,2013-04-20 14:15:00,
2013-04-20 09:20:00,35.5,30.5,30.28,West,281,5.0,5.0,82,0.00,,,0.00,557,Wunderground v.1.15,2013-04-20 14:20:00,
2013-04-20 09:25:00,35.8,30.8,30.28,West,281,4.0,7.0,82,0.00,,,0.00,575,Wunderground v.1.15,2013-04-20 14:25:00,
2013-04-20 09:35:00,36.1,30.8,30.28,WNW,287,5.0,7.0,81,0.00,,,0.00,605,Wunderground v.1.15,2013-04-20 14:35:00,
2013-04-20 09:40:00,36.5,31.5,30.28,WNW,287,4.0,4.0,82,0.00,,,0.00,619,Wunderground v.1.15,2013-04-20 14:40:00,
2013-04-20 09:45:00,36.6,30.7,30.28,WNW,287,4.0,4.0,79,0.00,,,0.00,636,Wunderground v.1.15,2013-04-20 14:45:00,
2013-04-20 09:50:00,36.8,30.9,30.28,WNW,287,4.0,4.0,79,0.00,,,0.00,650,Wunderground v.1.15,2013-04-20 14:50:00,
2013-04-20 09:55:00,37.2,31.3,30.29,WNW,287,3.0,4.0,79,0.00,,,0.00,668,Wunderground v.1.15,2013-04-20 14:55:00,
2013-04-20 10:05:00,37.8,31.2,30.30,WNW,287,3.0,3.0,77,0.00,,,0.00,696,Wunderground v.1.15,2013-04-20 15:05:00,
2013-04-20 10:10:00,38.0,32.4,30.29,WNW,287,3.0,3.0,80,0.00,,,0.00,719,Wunderground v.1.15,2013-04-20 15:10:00,
2013-04-20 10:15:00,38.5,32.9,30.29,WNW,287,3.0,3.0,80,0.00,,,0.00,738,Wunderground v.1.15,2013-04-20 15:15:00,
2013-04-20 10:20:00,38.6,32.0,30.30,WNW,287,3.0,3.0,77,0.00,,,0.00,773,Wunderground v.1.15,2013-04-20 15:20:00,
2013-04-20 10:25:00,38.8,32.2,30.30,WNW,287,4.0,4.0,77,0.00,,,0.00,773,Wunderground v.1.15,2013-04-20 15:25:00,
2013-04-20 10:30:00,39.0,32.7,30.30,WNW,287,3.0,6.0,78,0.00,,,0.00,780,Wunderground v.1.15,2013-04-20 15:30:00,
2013-04-20 10:40:00,39.2,31.6,30.30,WNW,290,4.0,4.0,74,0.00,,,0.00,200,Wunderground v.1.15,2013-04-20 15:40:00,
2013-04-20 10:45:00,39.5,32.2,30.30,WNW,300,4.0,6.0,75,0.00,,,0.00,835,Wunderground v.1.15,2013-04-20 15:45:00,
2013-04-20 10:50:00,39.8,32.2,30.30,WNW,298,5.0,7.0,74,0.00,,,0.00,851,Wunderground v.1.15,2013-04-20 15:50:00,
2013-04-20 10:55:00,39.9,31.3,30.31,WNW,294,4.0,7.0,71,0.00,,,0.00,926,Wunderground v.1.15,2013-04-20 15:55:00,
2013-04-20 11:00:00,40.1,30.7,30.31,WNW,286,4.0,4.0,69,0.00,,,0.00,932,Wunderground v.1.15,2013-04-20 16:00:00,
2013-04-20 11:05:00,40.2,31.2,30.31,West,274,5.0,5.0,70,0.00,,,0.00,900,Wunderground v.1.15,2013-04-20 16:05:00,
2013-04-20 11:10:00,40.4,31.0,30.31,West,272,5.0,5.0,69,0.00,,,0.00,946,Wunderground v.1.15,2013-04-20 16:10:00,
2013-04-20 11:15:00,40.8,32.1,30.31,WNW,300,4.0,5.0,71,0.00,,,0.00,983,Wunderground v.1.15,2013-04-20 16:15:00,
2013-04-20 11:20:00,40.9,30.4,30.31,NW,305,5.0,5.0,66,0.00,,,0.00,401,Wunderground v.1.15,2013-04-20 16:20:00,
2013-04-20 11:25:00,40.8,31.4,30.31,WNW,296,5.0,5.0,69,0.00,,,0.00,1039,Wunderground v.1.15,2013-04-20 16:25:00,
2013-04-20 11:30:00,41.3,32.6,30.31,WNW,296,3.0,3.0,71,0.00,,,0.00,673,Wunderground v.1.15,2013-04-20 16:30:00,
2013-04-20 11:35:00,41.5,32.4,30.32,West,269,3.0,7.0,70,0.00,,,0.00,415,Wunderground v.1.15,2013-04-20 16:35:00,
2013-04-20 11:45:00,41.6,32.2,30.32,WSW,257,5.0,8.0,69,0.00,,,0.00,410,Wunderground v.1.15,2013-04-20 16:45:00,
2013-04-20 11:50:00,41.6,31.1,30.32,WNW,286,4.0,4.0,66,0.00,,,0.00,485,Wunderground v.1.15,2013-04-20 16:50:00,
2013-04-20 11:55:00,41.8,31.6,30.31,WNW,286,3.0,6.0,67,0.00,,,0.00,366,Wunderground v.1.15,2013-04-20 16:55:00,
2013-04-20 12:00:00,41.6,31.1,30.31,WNW,293,4.0,4.0,66,0.00,,,0.00,1028,Wunderground v.1.15,2013-04-20 17:00:00,
2013-04-20 12:05:00,41.9,31.7,30.31,WNW,293,4.0,4.0,67,0.00,,,0.00,1069,Wunderground v.1.15,2013-04-20 17:05:00,
2013-04-20 12:15:00,42.2,30.9,30.31,WNW,286,5.0,6.0,64,0.00,,,0.00,965,Wunderground v.1.15,2013-04-20 17:15:00,
2013-04-20 12:20:00,42.5,31.6,30.31,WNW,287,4.0,9.0,65,0.00,,,0.00,1004,Wunderground v.1.15,2013-04-20 17:20:00,
2013-04-20 12:25:00,42.4,31.1,30.31,WNW,301,5.0,9.0,64,0.00,,,0.00,248,Wunderground v.1.15,2013-04-20 17:25:00,
2013-04-20 12:30:00,42.0,30.3,30.31,WNW,301,6.0,6.0,63,0.00,,,0.00,248,Wunderground v.1.15,2013-04-20 17:30:00,
2013-04-20 12:35:00,41.8,29.3,30.31,WNW,301,5.0,6.0,61,0.00,,,0.00,255,Wunderground v.1.15,2013-04-20 17:35:00,
2013-04-20 12:40:00,42.4,32.2,30.31,WNW,301,2.0,7.0,67,0.00,,,0.00,1085,Wunderground v.1.15,2013-04-20 17:40:00,
2013-04-20 12:50:00,43.1,31.4,30.31,WNW,302,4.0,4.0,63,0.00,,,0.00,1167,Wunderground v.1.15,2013-04-20 17:50:00,
2013-04-20 12:55:00,43.2,30.6,30.31,WNW,302,4.0,4.0,61,0.00,,,0.00,469,Wunderground v.1.15,2013-04-20 17:55:00,
2013-04-20 13:00:00,43.6,32.6,30.31,WNW,296,3.0,3.0,65,0.00,,,0.00,953,Wunderground v.1.15,2013-04-20 18:00:00,
2013-04-20 13:05:00,43.9,31.7,30.31,WNW,297,3.0,3.0,62,0.00,,,0.00,1085,Wunderground v.1.15,2013-04-20 18:05:00,
2013-04-20 13:10:00,44.5,34.6,30.31,WNW,298,3.0,7.0,68,0.00,,,0.00,1071,Wunderground v.1.15,2013-04-20 18:10:00,
2013-04-20 13:20:00,44.5,32.3,30.31,WNW,282,4.0,4.0,62,0.00,,,0.00,260,Wunderground v.1.15,2013-04-20 18:20:00,
2013-04-20 13:25:00,44.4,31.8,30.31,West,281,2.0,6.0,61,0.00,,,0.00,1085,Wunderground v.1.15,2013-04-20 18:25:00,
2013-04-20 13:30:00,44.9,31.8,30.30,SW,235,3.0,10.0,60,0.00,,,0.00,1046,Wunderground v.1.15,2013-04-20 18:30:00,
2013-04-20 13:35:00,45.1,31.2,30.30,WNW,300,6.0,10.0,58,0.00,,,0.00,1079,Wunderground v.1.15,2013-04-20 18:35:00,
2013-04-20 13:40:00,44.9,31.0,30.30,NW,317,6.0,6.0,58,0.00,,,0.00,1044,Wunderground v.1.15,2013-04-20 18:40:00,
2013-04-20 13:45:00,45.1,32.0,30.30,NW,315,4.0,6.0,60,0.00,,,0.00,1049,Wunderground v.1.15,2013-04-20 18:45:00,
2013-04-20 13:55:00,45.5,32.8,30.30,West,277,5.0,5.0,61,0.00,,,0.00,1076,Wunderground v.1.15,2013-04-20 18:55:00,
2013-04-20 14:00:00,46.1,34.6,30.30,WSW,242,5.0,5.0,64,0.00,,,0.00,1058,Wunderground v.1.15,2013-04-20 19:00:00,
2013-04-20 14:05:00,46.7,35.6,30.30,SW,230,6.0,11.0,65,0.00,,,0.00,1011,Wunderground v.1.15,2013-04-20 19:05:00,
2013-04-20 14:10:00,46.6,31.3,30.31,West,259,7.0,7.0,55,0.00,,,0.00,1035,Wunderground v.1.15,2013-04-20 19:10:00,
2013-04-20 14:15:00,46.7,32.7,30.31,WSW,257,6.0,7.0,58,0.00,,,0.00,1055,Wunderground v.1.15,2013-04-20 19:15:00,
2013-04-20 14:25:00,47.1,30.4,30.31,West,275,3.0,3.0,52,0.00,,,0.00,1085,Wunderground v.1.15,2013-04-20 19:25:00,
2013-04-20 14:30:00,47.1,32.2,30.30,SW,215,5.0,6.0,56,0.00,,,0.00,301,Wunderground v.1.15,2013-04-20 19:30:00,
2013-04-20 14:35:00,47.3,33.7,30.30,SW,216,4.0,6.0,59,0.00,,,0.00,1020,Wunderground v.1.15,2013-04-20 19:35:00,
2013-04-20 14:40:00,47.3,31.9,30.30,SW,216,3.0,3.0,55,0.00,,,0.00,1039,Wunderground v.1.15,2013-04-20 19:40:00,
2013-04-20 14:45:00,47.2,31.8,30.30,WSW,244,3.0,3.0,55,0.00,,,0.00,246,Wunderground v.1.15,2013-04-20 19:45:00,
2013-04-20 14:50:00,46.9,31.1,30.30,WSW,255,3.0,3.0,54,0.00,,,0.00,719,Wunderground v.1.15,2013-04-20 19:50:00,
2013-04-20 15:00:00,46.9,33.7,30.30,WSW,255,1.0,1.0,60,0.00,,,0.00,942,Wunderground v.1.15,2013-04-20 20:00:00,
2013-04-20 15:05:00,47.5,31.7,30.30,WSW,244,3.0,6.0,54,0.00,,,0.00,932,Wunderground v.1.15,2013-04-20 20:05:00,
2013-04-20 15:10:00,47.7,31.9,30.30,WSW,250,5.0,5.0,54,0.00,,,0.00,279,Wunderground v.1.15,2013-04-20 20:10:00,
2013-04-20 15:15:00,47.6,30.8,30.30,WSW,250,3.0,5.0,52,0.00,,,0.00,729,Wunderground v.1.15,2013-04-20 20:15:00,
2013-04-20 15:25:00,47.8,31.9,30.30,WNW,292,3.0,3.0,54,0.00,,,0.00,246,Wunderground v.1.15,2013-04-20 20:25:00,
2013-04-20 15:30:00,47.8,33.3,30.30,WNW,292,3.0,4.0,57,0.00,,,0.00,807,Wunderground v.1.15,2013-04-20 20:30:00,
2013-04-20 15:35:00,47.8,31.5,30.30,WNW,290,4.0,4.0,53,0.00,,,0.00,816,Wunderground v.1.15,2013-04-20 20:35:00,
2013-04-20 15:40:00,47.9,30.6,30.30,WNW,290,4.0,4.0,51,0.00,,,0.00,766,Wunderground v.1.15,2013-04-20 20:40:00,
2013-04-20 15:45:00,48.3,29.5,30.30,WNW,290,3.0,4.0,48,0.00,,,0.00,751,Wunderground v.1.15,2013-04-20 20:45:00,
2013-04-20 15:50:00,48.8,31.9,30.29,WNW,290,1.0,3.0,52,0.00,,,0.00,749,Wunderground v.1.15,2013-04-20 20:50:00,
2013-04-20 15:55:00,49.0,29.6,30.29,NNE,12,1.0,3.0,47,0.00,,,0.00,724,Wunderground v.1.15,2013-04-20 20:55:00,
2013-04-20 16:05:00,49.1,33.6,30.29,NNE,13,2.0,4.0,55,0.00,,,0.00,731,Wunderground v.1.15,2013-04-20 21:05:00,
2013-04-20 16:10:00,49.1,32.2,30.29,NNE,15,2.0,3.0,52,0.00,,,0.00,701,Wunderground v.1.15,2013-04-20 21:10:00,
2013-04-20 16:15:00,49.2,31.3,30.29,NNE,15,2.0,3.0,50,0.00,,,0.00,700,Wunderground v.1.15,2013-04-20 21:15:00,
2013-04-20 16:20:00,49.2,31.8,30.29,NNE,15,2.0,2.0,51,0.00,,,0.00,675,Wunderground v.1.15,2013-04-20 21:20:00,
2013-04-20 16:25:00,49.7,33.7,30.29,NNE,15,1.0,2.0,54,0.00,,,0.00,608,Wunderground v.1.15,2013-04-20 21:25:00,
2013-04-20 16:30:00,50.0,32.1,30.29,NNE,15,1.0,2.0,50,0.00,,,0.00,656,Wunderground v.1.15,2013-04-20 21:30:00,
2013-04-20 16:35:00,50.3,32.4,30.29,NNE,15,1.0,2.0,50,0.00,,,0.00,561,Wunderground v.1.15,2013-04-20 21:35:00,
2013-04-20 16:40:00,50.5,31.5,30.29,NNE,17,2.0,3.0,48,0.00,,,0.00,582,Wunderground v.1.15,2013-04-20 21:40:00,
2013-04-20 16:45:00,50.3,31.8,30.29,North,11,2.0,3.0,49,0.00,,,0.00,575,Wunderground v.1.15,2013-04-20 21:45:00,
2013-04-20 16:50:00,50.1,31.2,30.29,North,5,3.0,3.0,48,0.00,,,0.00,554,Wunderground v.1.15,2013-04-20 21:50:00,
2013-04-20 16:55:00,49.9,31.0,30.29,North,360,3.0,5.0,48,0.00,,,0.00,499,Wunderground v.1.15,2013-04-20 21:55:00,
2013-04-20 17:00:00,49.6,29.6,30.29,NNW,337,3.0,3.0,46,0.00,,,0.00,404,Wunderground v.1.15,2013-04-20 22:00:00,
2013-04-20 17:10:00,49.7,30.8,30.29,NNW,333,2.0,2.0,48,0.00,,,0.00,417,Wunderground v.1.15,2013-04-20 22:10:00,
2013-04-20 17:15:00,49.7,30.3,30.29,NNW,333,2.0,2.0,47,0.00,,,0.00,434,Wunderground v.1.15,2013-04-20 22:15:00,
2013-04-20 17:20:00,49.9,31.0,30.29,NNW,333,1.0,1.0,48,0.00,,,0.00,441,Wunderground v.1.15,2013-04-20 22:20:00,
2013-04-20 17:25:00,50.3,29.2,30.29,NNW,333,1.0,3.0,44,0.00,,,0.00,448,Wunderground v.1.15,2013-04-20 22:25:00,
2013-04-20 17:30:00,50.4,29.8,30.29,West,265,3.0,3.0,45,0.00,,,0.00,432,Wunderground v.1.15,2013-04-20 22:30:00,
2013-04-20 17:35:00,50.3,28.6,30.29,West,265,3.0,3.0,43,0.00,,,0.00,394,Wunderground v.1.15,2013-04-20 22:35:00,
2013-04-20 17:40:00,50.2,28.5,30.29,West,265,2.0,4.0,43,0.00,,,0.00,360,Wunderground v.1.15,2013-04-20 22:40:00,
2013-04-20 17:45:00,50.0,29.5,30.29,West,265,3.0,4.0,45,0.00,,,0.00,322,Wunderground v.1.15,2013-04-20 22:45:00,
2013-04-20 17:50:00,50.1,29.6,30.29,West,261,1.0,5.0,45,0.00,,,0.00,369,Wunderground v.1.15,2013-04-20 22:50:00,
2013-04-20 17:55:00,49.7,28.6,30.29,West,261,1.0,5.0,44,0.00,,,0.00,353,Wunderground v.1.15,2013-04-20 22:55:00,
2013-04-20 18:00:00,49.3,28.3,30.29,West,261,2.0,2.0,44,0.00,,,0.00,318,Wunderground v.1.15,2013-04-20 23:00:00,
2013-04-20 18:10:00,49.7,28.6,30.29,West,261,0.0,2.0,44,0.00,,,0.00,290,Wunderground v.1.15,2013-04-20 23:10:00,
2013-04-20 18:15:00,50.0,28.9,30.29,West,261,1.0,2.0,44,0.00,,,0.00,244,Wunderground v.1.15,2013-04-20 23:15:00,
2013-04-20 18:20:00,50.1,29.6,30.29,West,261,0.0,0.0,45,0.00,,,0.00,243,Wunderground v.1.15,2013-04-20 23:20:00,
2013-04-20 18:25:00,50.0,30.0,30.29,West,261,0.0,2.0,46,0.00,,,0.00,220,Wunderground v.1.15,2013-04-20 23:25:00,
2013-04-20 18:30:00,49.4,28.9,30.29,NE,51,2.0,2.0,45,0.00,,,0.00,195,Wunderground v.1.15,2013-04-20 23:30:00,
2013-04-20 18:35:00,49.1,29.7,30.29,NE,51,2.0,3.0,47,0.00,,,0.00,176,Wunderground v.1.15,2013-04-20 23:35:00,
2013-04-20 18:40:00,48.8,29.4,30.29,NE,51,2.0,2.0,47,0.00,,,0.00,158,Wunderground v.1.15,2013-04-20 23:40:00,
2013-04-20 18:45:00,48.5,28.1,30.29,NE,51,2.0,2.0,45,0.00,,,0.00,128,Wunderground v.1.15,2013-04-20 23:45:00,
2013-04-20 18:50:00,48.7,31.4,30.29,NE,51,0.0,0.0,51,0.00,,,0.00,113,Wunderground v.1.15,2013-04-20 23:50:00,
2013-04-20 18:55:00,48.7,29.4,30.29,NE,51,1.0,2.0,47,0.00,,,0.00,91,Wunderground v.1.15,2013-04-20 23:55:00,
2013-04-20 19:00:00,48.5,30.7,30.29,NE,51,2.0,3.0,50,0.00,,,0.00,70,Wunderground v.1.15,2013-04-21 00:00:00,
2013-04-20 19:10:00,47.7,32.3,30.30,ENE,57,3.0,3.0,55,0.00,,,0.00,49,Wunderground v.1.15,2013-04-21 00:10:00,
2013-04-20 19:20:00,47.0,31.7,30.30,ENE,57,3.0,3.0,55,0.00,,,0.00,28,Wunderground v.1.15,2013-04-21 00:20:00,
2013-04-20 19:25:00,46.8,31.9,30.30,ENE,57,2.0,3.0,56,0.00,,,0.00,21,Wunderground v.1.15,2013-04-21 00:25:00,
2013-04-20 19:30:00,46.5,32.5,30.31,ENE,57,2.0,4.0,58,0.00,,,0.00,16,Wunderground v.1.15,2013-04-21 00:30:00,
2013-04-20 19:35:00,46.2,32.7,30.31,ENE,57,2.0,4.0,59,0.00,,,0.00,11,Wunderground v.1.15,2013-04-21 00:35:00,
2013-04-20 19:40:00,45.9,34.0,30.31,ENE,57,2.0,2.0,63,0.00,,,0.00,7,Wunderground v.1.15,2013-04-21 00:40:00,
2013-04-20 19:45:00,45.5,34.0,30.31,ENE,57,2.0,2.0,64,0.00,,,0.00,5,Wunderground v.1.15,2013-04-21 00:45:00,
2013-04-20 19:55:00,44.7,33.6,30.32,ENE,57,2.0,2.0,65,0.00,,,0.00,0,Wunderground v.1.15,2013-04-21 00:55:00,
2013-04-20 20:00:00,44.4,33.7,30.33,ENE,57,2.0,2.0,66,0.00,,,0.00,0,Wunderground v.1.15,2013-04-21 01:00:00,
2013-04-20 20:10:00,43.9,34.7,30.33,ENE,57,2.0,3.0,70,0.00,,,0.00,0,Wunderground v.1.15,2013-04-21 01:10:00,
2013-04-20 20:15:00,43.5,35.1,30.33,ENE,57,3.0,3.0,72,0.00,,,0.00,0,Wunderground v.1.15,2013-04-21 01:15:00,
2013-04-20 20:20:00,43.1,35.0,30.33,ENE,57,2.0,2.0,73,0.00,,,0.00,0,Wunderground v.1.15,2013-04-21 01:20:00,
2013-04-20 20:25:00,42.7,35.0,30.33,ENE,57,1.0,2.0,74,0.00,,,0.00,0,Wunderground v.1.15,2013-04-21 01:25:00,
2013-04-20 20:30:00,42.5,35.1,30.34,ENE,57,1.0,1.0,75,0.00,,,0.00,0,Wunderground v.1.15,2013-04-21 01:30:00,
2013-04-20 20:35:00,42.3,35.3,30.34,ENE,57,2.0,3.0,76,0.00,,,0.00,0,Wunderground v.1.15,2013-04-21 01:35:00,
2013-04-20 20:40:00,42.0,32.9,30.34,ENE,57,3.0,4.0,70,0.00,,,0.00,0,Wunderground v.1.15,2013-04-21 01:40:00,
2013-04-20 20:45:00,41.9,34.2,30.35,ENE,57,3.0,4.0,74,0.00,,,0.00,0,Wunderground v.1.15,2013-04-21 01:45:00,
2013-04-20 20:50:00,41.8,34.8,30.35,ENE,57,2.0,3.0,76,0.00,,,0.00,0,Wunderground v.1.15,2013-04-21 01:50:00,
2013-04-20 21:00:00,41.7,34.0,30.35,ENE,57,3.0,3.0,74,0.00,,,0.00,0,Wunderground v.1.15,2013-04-21 02:00:00,
2013-04-20 21:10:00,41.5,34.5,30.36,ENE,57,2.0,2.0,76,0.00,,,0.00,0,Wunderground v.1.15,2013-04-21 02:10:00,
2013-04-20 21:15:00,41.3,35.0,30.36,ENE,57,2.0,2.0,78,0.00,,,0.00,0,Wunderground v.1.15,2013-04-21 02:15:00,
2013-04-20 21:20:00,40.9,34.6,30.36,ENE,57,1.0,3.0,78,0.00,,,0.00,0,Wunderground v.1.15,2013-04-21 02:20:00,
2013-04-20 21:25:00,40.6,34.3,30.36,ENE,57,2.0,3.0,78,0.00,,,0.00,0,Wunderground v.1.15,2013-04-21 02:25:00,
2013-04-20 21:30:00,40.4,34.4,30.36,ENE,57,2.0,3.0,79,0.00,,,0.00,0,Wunderground v.1.15,2013-04-21 02:30:00,
2013-04-20 21:35:00,40.0,32.7,30.36,ENE,57,3.0,3.0,75,0.00,,,0.00,0,Wunderground v.1.15,2013-04-21 02:35:00,
2013-04-20 21:40:00,39.9,32.9,30.36,ENE,57,3.0,3.0,76,0.00,,,0.00,0,Wunderground v.1.15,2013-04-21 02:40:00,
2013-04-20 21:45:00,39.9,33.6,30.36,ENE,57,3.0,3.0,78,0.00,,,0.00,0,Wunderground v.1.15,2013-04-21 02:45:00,
2013-04-20 21:50:00,39.8,33.5,30.36,ENE,57,3.0,3.0,78,0.00,,,0.00,0,Wunderground v.1.15,2013-04-21 02:50:00,
2013-04-20 21:55:00,39.7,33.7,30.36,ENE,57,3.0,3.0,79,0.00,,,0.00,0,Wunderground v.1.15,2013-04-21 02:55:00,
2013-04-20 22:05:00,39.5,32.6,30.36,ENE,57,3.0,4.0,76,0.00,,,0.00,0,Wunderground v.1.15,2013-04-21 03:05:00,
2013-04-20 22:10:00,39.5,33.2,30.36,ENE,57,4.0,4.0,78,0.00,,,0.00,0,Wunderground v.1.15,2013-04-21 03:10:00,
2013-04-20 22:15:00,39.4,33.4,30.36,ENE,57,3.0,4.0,79,0.00,,,0.00,0,Wunderground v.1.15,2013-04-21 03:15:00,
2013-04-20 22:20:00,39.4,33.4,30.36,ENE,57,3.0,3.0,79,0.00,,,0.00,0,Wunderground v.1.15,2013-04-21 03:20:00,
2013-04-20 22:25:00,39.4,33.4,30.36,ENE,57,3.0,4.0,79,0.00,,,0.00,0,Wunderground v.1.15,2013-04-21 03:25:00,
2013-04-20 22:30:00,39.3,33.3,30.36,ENE,57,4.0,4.0,79,0.00,,,0.00,0,Wunderground v.1.15,2013-04-21 03:30:00,
2013-04-20 22:35:00,39.1,32.8,30.36,ENE,63,5.0,6.0,78,0.00,,,0.00,0,Wunderground v.1.15,2013-04-21 03:35:00,
2013-04-20 22:40:00,39.3,32.4,30.36,East,81,6.0,6.0,76,0.00,,,0.00,0,Wunderground v.1.15,2013-04-21 03:40:00,
2013-04-20 22:45:00,39.4,32.5,30.36,East,86,6.0,6.0,76,0.00,,,0.00,0,Wunderground v.1.15,2013-04-21 03:45:00,
2013-04-20 22:50:00,39.6,32.7,30.36,East,86,5.0,5.0,76,0.00,,,0.00,0,Wunderground v.1.15,2013-04-21 03:50:00,
2013-04-20 22:55:00,39.8,32.8,30.36,East,88,6.0,6.0,76,0.00,,,0.00,0,Wunderground v.1.15,2013-04-21 03:55:00,
2013-04-20 23:00:00,39.9,32.9,30.36,East,89,6.0,6.0,76,0.00,,,0.00,0,Wunderground v.1.15,2013-04-21 04:00:00,
2013-04-20 23:05:00,40.0,33.0,30.36,East,90,6.0,6.0,76,0.00,,,0.00,0,Wunderground v.1.15,2013-04-21 04:05:00,
2013-04-20 23:10:00,40.0,33.0,30.36,East,95,6.0,6.0,76,0.00,,,0.00,0,Wunderground v.1.15,2013-04-21 04:10:00,
2013-04-20 23:15:00,40.2,33.2,30.36,ESE,105,6.0,7.0,76,0.00,,,0.00,0,Wunderground v.1.15,2013-04-21 04:15:00,
2013-04-20 23:20:00,40.4,33.1,30.36,ESE,108,7.0,7.0,75,0.00,,,0.00,0,Wunderground v.1.15,2013-04-21 04:20:00,
2013-04-20 23:25:00,40.5,32.9,30.36,ESE,118,7.0,7.0,74,0.00,,,0.00,0,Wunderground v.1.15,2013-04-21 04:25:00,
2013-04-20 23:30:00,40.6,33.0,30.37,ESE,119,7.0,7.0,74,0.00,,,0.00,0,Wunderground v.1.15,2013-04-21 04:30:00,
2013-04-20 23:35:00,40.6,33.3,30.37,ESE,120,7.0,8.0,75,0.00,,,0.00,0,Wunderground v.1.15,2013-04-21 04:35:00,
2013-04-20 23:40:00,40.5,33.2,30.37,ESE,120,6.0,6.0,75,0.00,,,0.00,0,Wunderground v.1.15,2013-04-21 04:40:00,
2013-04-20 23:45:00,40.4,33.4,30.37,ESE,120,6.0,6.0,76,0.00,,,0.00,0,Wunderground v.1.15,2013-04-21 04:45:00,
2013-04-20 23:50:00,40.2,33.2,30.37,ESE,120,5.0,6.0,76,0.00,,,0.00,0,Wunderground v.1.15,2013-04-21 04:50:00,
2013-04-20 23:55:00,40.0,33.4,30.37,ESE,120,5.0,6.0,77,0.00,,,0.00,0,Wunderground v.1.15,2013-04-21 04:55:00,